Regional Weather Roundup
Issued by NWS Northern Indiana

Home | Current Version | Previous Version | Graphics & Text | Print | Product List | Glossary On
Versions: 1 2 3 4 5 6 7 8 9 10 11 12 13 14 15 16 17 18 19 20 21 22 23 24 25 26 27 28 29 30 31 32 33 34 35 36 37 38 39 40 41 42 43 44 45 46 47 48 49 50
000
ASUS43 KIWX 280100
RWRIWX

KIWX WEATHER ROUNDUP
NATIONAL WEATHER SERVICE NORTHERN INDIANA
800 PM EST FRI FEB 27 2015

NOTE: "FAIR" INDICATES FEW OR NO CLOUDS BELOW 12,000 FEET WITH NO
SIGNIFICANT WEATHER AND/OR OBSTRUCTIONS TO VISIBILITY.

* THESE STATIONS ARE NOT UNDER NWS QUALITY CONTROL. THEY ALSO MAY NOT
  REPORT WEATHER SUCH AS PRECIPITATION OR FOG.

INZ001>027-280200-
NORTHERN INDIANA

CITY           SKY/WX    TMP DP  RH WIND       PRES   REMARKS
KNOX*            N/A      7 -20  28 CALM      30.63R
SOUTH BEND     CLEAR     10  -3  55 SW7       30.63R WCI  -1
ELKHART*       PTCLDY    10  -6  48 W5        30.62R WCI   2
GOSHEN         CLEAR      9  -2  61 S3        30.61R
MONTICELLO*    CLEAR      6  -2  68 CALM      30.64S
ANGOLA*        CLEAR      7  -2  66 CALM      30.58R
FORT WAYNE     PTCLDY     7   0  73 W3        30.63R
PERU/GRISSOM   CLEAR      6  -3  67 W6        30.62R WCI  -4

$$
INZ028>050-280200-
CENTRAL INDIANA

CITY           SKY/WX    TMP DP  RH WIND       PRES   REMARKS
LAFAYETTE      CLEAR      8  -3  61 N3        30.66R
KOKOMO*        CLEAR      9  -2  61 W7        30.63S WCI  -3
MUNCIE*        CLEAR      8  -1  66 CALM      30.62R
INDIANAPOLIS   PTCLDY    12  -2  53 NW6       30.62R WCI   3

$$
MIZ043>046-050>051-056>058-064>065-071>073-077>080-280200-
SOUTHWEST LOWER MICHIGAN

CITY           SKY/WX    TMP DP  RH WIND       PRES   REMARKS
BATTLE CREEK   CLEAR     11  -3  53 W7        30.57R WCI   0
BENTON HARBOR  CLEAR      9   0  67 S3        30.62R
COLDWATER*     CLEAR      8  -2  63 SW6       30.58R WCI  -2
HILLSDALE*     CLEAR     11  -1  57 SW5       30.56R WCI   3
HOLLAND        CLEAR     10   0  63 S3        30.60R
GRAND RAPIDS   CLEAR     12   1  61 SW10      30.58R WCI  -1
KALAMAZOO      CLEAR     12  -2  53 W5        30.59R WCI   4
STURGIS*       CLEAR      9   0  66 SW6       30.59R WCI  -1
THREE RIVERS*  FAIR      11  -1  58 CALM      30.61R

$$
OHZ001>008-015>018-024>025-280200-
NORTHWEST OHIO

CITY           SKY/WX    TMP DP  RH WIND       PRES   REMARKS
DEFIANCE       CLEAR      7  -3  64 CALM      30.63R
FINDLAY        CLEAR      5  -6  60 S3        30.62R
TOLEDO EXPRESS FAIR       7  -4  60 SW5       30.62R WCI  -2
TOLEDO METCALF CLEAR      8  -4  58 SW6       30.63R WCI  -2
LIMA           CLEAR     10  -4  53 S6        30.61R WCI   0

$$
AND FOR LAKE MICHIGAN COASTAL AND OPEN LAKE BUOY OBSERVATIONS

STATION/POSITION TEMP    WIND        PRES    VSBY  WAVE
                 AIR SEA DIR/SP/G                  HT/PER
                 (F)     (DEG/KT/KT) (MB)    (MI)  (FT/S)
CALUMET HARBOR    12     220/  5/  9 1035.9R
MICHIGAN CITY     13     200/  7/  7   N/A
SAINT JOSEPH      14     170/  4/  8 1035.9S

$$
&&


USA.gov is the U.S. government's official web portal to all federal, state and local government web resources and services.